THOR ABLESTAR DEB, 467

Orbit data source: Space-Track

THOR ABLESTAR DEB, 467 is space debris in LEO originally from a launch on Thu, 29 Jun 1961 UTC launched from the Air Force Eastern Test Range (AFETR). Debris objects in space refer to the collection of defunct objects orbiting the Earth. Examples of debris include non-operational satellites, rocket bodies, and fragments generated from explosions, collisions, or faulty payload assembly.

Loading next visibility...
Identifier
467, 1961-015FD
Orbit
LEO
Country
Flag of USUS
Related business
Manufacturer
Unknown
Mission
Spacecraft
Bus & Motor
Unknown
Mass
Unknown
Launch date (UTC)
1961-06-29 (65 years ago)
Launch vehicle
Unknown
Launch site
Air Force Eastern Test Range (AFETR)
Object type
Payload
Rocket body
Debris
Shape & HBR
Unknown shape, 0.1 m
Radar Cross Section
Medium (>0.1 m² and <1 m²)

Expand to show TLE details & history
Last TLE update: 22 hours ago

TLE from 22 hours ago
0 THOR ABLESTAR DEB
1 00467U 61015FD  26206.43975947  .00000917  00000-0  11373-2 0  9998
2 00467  66.5591 358.7111 0243815 294.8866  62.7027 13.57526340286133
Epoch: 2026-07-25T10:33Z
TLE epoch observation values (Epoch: 2026-07-25T10:33:15.218Z)
Latitude
-0.00001°
Longitude
-102.75433°
Altitude
967.259 km
Speed
7.408 km/s
True Right ascension
23h 54m 50s
True Declination
0° 00' 00"
Sunlit
Object was in full shadow at epoch
Visualization orbit readout
Latitude
Unknown
Longitude
Unknown
Altitude
Unknown
Speed
Unknown
Apparent Right ascension
Unknown
Apparent Declination
Unknown
Sunlit
N/A
Visualization observer readout
Local Sidereal Time
21:54:52
Azimuth
Unknown
Elevation
Unknown
Doppler factor
Unknown
Orbital elements
Apogee altitude
1,224.083 km
Perigee altitude
862.199 km
Semi-major axis
7,421.278 km
Eccentricity
0.02438
Inclination
66.5591°
RAAN
358.7111°
Arg. of periapsis
294.8866°
True anomaly
65.21984°
Mean anomaly
62.7027°
Eccentric anomaly
63.95783°
Mean motion
3.39489 °/min
Orbital period
106.04 mins
BSTAR
0.0011373
Loading maneuver chart data...
Computing Atmospheric mass density...

Documentation

Showing up to 5 results
|